Find BRO-11

NORAD ID: 58264 Int'l Des: 2023-174 Owner: UNSEEN Country: F operational
LEOCIRCULARRETROGRADESSO

Live-Position

3D-Globus wird geladen...

Über BRO-11

Beschreibung wird geladen...

Nächste Überflüge

Passes for default location (London). Set your location on the main map for personalized predictions.

Höhenverlauf

Loading altitude history...

Zweizeiliger Elementsatz

1 58264U 23174J 26106.91307405 .00003227 00000-0 12526-3 0 9999
2 58264 97.3922 184.3434 0011857 69.1682 291.0826 15.26757314135402
Epoch: 16. Apr. 2026 • Age: 11 hours

Aktueller Status

Höhe 510.2 km
Geschwindigkeit 7.61 km/s
Subsatellitenpunkt -52.76°S, 141.31°W
Startdatum 11. Nov. 2023
Alter 2.4 years
Typ other

Technische Details

Klassifizierung Payload
Masse 10.00 kg
Trockenmasse 10.00 kg
Gesamtmasse 10.00 kg
Länge 0.30 m
Durchmesser 0.20 m
Spannweite 0.30 m
Form Box
Hersteller GOMSP
Bus-Typ Cubesat 6U
Phasenstatus In Orbit
Besitzer/Staat UNSEEN/F

Most Searched